Regional Weather Roundup
Issued by NWS Charleston, SC

Current Version | Previous Version | Text Only | Print | Product List | Glossary Off
Versions: 1 2 3 4 5 6 7 8 9 10 11 12 13 14 15 16 17 18 19 20 21 22 23 24 25 26 27 28 29 30 31 32 33 34 35 36 37 38 39 40 41 42 43 44 45 46 47 48 49 50
000 ASUS42 KCHS 290513 RWRCHS REGIONAL WEATHER ROUNDUP NATIONAL WEATHER SERVICE CHARLESTON SC 100 AM EDT THU SEP 29 2016 NOTE: "FAIR" INDICATES FEW OR NO CLOUDS BELOW 12,000 FEET WITH NO SIGNIFICANT WEATHER AND/OR OBSTRUCTIONS TO VISIBILITY. NOT ALL STATIONS ARE QUALITY CONTROLLED. USE DATA WITH CAUTION... ESPECIALLY DEWPOINT OBSERVATIONS. SCZ027-030-031-034>040-042>050-290600- ...SOUTHEAST SOUTH CAROLINA... CITY SKY/WX TMP DP RH WIND PRES REMARKS N CHARLESTON PTCLDY 78 73 84 S7 29.95F WATERFRONT PRK N/A 80 76 87 S8 29.94S MOUNT PLEASANT FAIR 79 75 89 S3 29.96S JOHNS ISLAND FAIR 81 75 83 S7 29.95F PINOPOLIS N/A 77 75 94 VRB2 29.88S MONCKS CORNER MOCLDY 75 73 94 S3 29.95S SUMMERVILLE NOT AVBL BEAUFORT MCAS CLEAR 80 75 84 S5 29.95S BEAUFORT ARPT FAIR 79 73 83 S7 29.95S HILTON HEAD IS PTCLDY 81 73 78 SW9G15 29.96S WALTERBORO PTCLDY 79 79 100 S7 29.95F ALLENDALE MOCLDY 77 73 88 VRB3 29.93S ...SOUTHERN MIDLANDS AND PEE DEE... CITY SKY/WX TMP DP RH WIND PRES REMARKS GEORGETOWN FAIR 75 73 94 S5 29.97F KINGSTREE FAIR 73 72 94 SE6 29.94F ORANGEBURG CLEAR 75 72 90 S8 29.93F BARNWELL NOT AVBL AIKEN FAIR 70 68 94 CALM 29.96S MANNING FAIR 77 72 83 S7 29.94F COLUMBIA MOCLDY 77 71 82 CALM 29.91F SUMTER CLEAR 76 71 86 S6 29.90F FLORENCE CLOUDY 77 74 90 S10 29.94S MYRTLE BEACH MOCLDY 81 68 65 S14 N/A N MYRTLE BEACH PTCLDY 80 73 79 S10 29.97S $$ GAZ063-065-086>088-099>101-113>116-118-119-134>141-150-290600- ...SOUTHEAST GEORGIA... CITY SKY/WX TMP DP RH WIND PRES REMARKS SAVANNAH ARPT PTCLDY 77 71 82 S8 29.96S HUNTER AAF CLOUDY 77 76 95 SW7 29.94R FORT STEWART PTCLDY 74 70 86 S1 29.94S STATESBORO CLEAR 76 73 90 S7 29.95S SYLVANIA NOT AVBL CLAXTON FAIR 76 74 91 CALM 29.95S ...CSRA...CENTRAL AND FAR SOUTHEAST GEORGIA... CITY SKY/WX TMP DP RH WIND PRES REMARKS THOMSON CLEAR 71 69 93 CALM 29.96S AUGUSTA-BUSH PTCLDY 77 69 76 SW8 29.91S AUGUSTA-DANIEL PTCLDY 77 67 71 SW5 29.92S SWAINSBORO FAIR 75 70 83 SW5 29.95S VIDALIA CLEAR 75 73 94 SW5 29.96S EASTMAN FAIR 76 67 72 S5 29.97S HAZLEHURST FAIR 77 75 93 N6 29.95S ALMA CLEAR 74 72 93 S6 29.96F WAYCROSS CLEAR 77 76 98 SW6 29.97F JESUP FAIR 75 75 100 SW3 29.97S BAXLEY FAIR 75 75 100 S3 29.96F BRUNSWICK MOCLDY 77 75 94 SW5 29.98S SAINT SIMONS MOCLDY 77 73 87 SW8 29.97F $$ SCZ027-028-034-036>038-045-046-048>050-GAZ119-141-290600- ...LAKE AND SUPPLEMENTAL COASTAL OBSERVATIONS... STATION/POSITION TIME TEMP WIND PRES WAVE SWELL AIR SEA DIR/SP/G HT/PER HT/PER/DIR (UTC) (F) (DEG/KT/KT) (MB) (FT/S) (FT/S/D) WINYAH BAY NOT AVBL LAKE MURRAY 0420 76 130/ 3/ 4 1012.5 ACE BASIN NERRS 0345 80 CALM 1015.0 FORT PULASKI 0448 79 81 210/ 6/ 9 1014.9S SAPELO ISLAND 0400 78 200/ 6 1015.0 $$ ANZ835-935-AMZ111-154-330-350-352-354-370-450-454-472-290600- ...C-MAN AND BUOY OBSERVATIONS... STATION/POSITION TIME TEMP WIND PRES WAVE SWELL AIR SEA DIR/SP/G HT/PER HT/PER/DIR (UTC) (F) (DEG/KT/KT) (MB) (FT/S) (FT/S/D) BUOY 41004 0450 82 82 200/ 16/ 19 1014.3F 3/ 4 2/100/11 BUOY 41008 0450 81 82 220/ 16/ 17 1014.5F 3/11 2/140/11 FOLLY BEACH CMAN 0400 81 200/ 16/ 19 1014.7S CAPERS NEARSHORE 0408 81 81 200/ 16/ 19 1014.7F FRIPP NEARSHORE 0408 81 81 200/ 16/ 21 1014.5F STATION/POSITION TIME TEMP WIND PRES WAVE SWELL AIR SEA DIR/SP/G HT/PER HT/PER/DIR (UTC) (F) (DEG/KT/KT) (MB) (FT/S) (FT/S/D) 5E ST. MARYS GA 0401 82 N/A 2/13 2/110/13 FRYING PAN BUOY 0450 82 82 170/ 12/ 14 1015.1F 3/ 7 3/100/ 7 BUOY 41025 0450 81 83 150/ 10/ 12 1015.9F 4/ 8 3/ 70/ 8 CAPE LOOKOUT NC 0400 80 160/ 8/ 9 1015.5S BUOY 41002 0450 81 83 190/ 14/ 16 1016.6F 5/ 6 3/ 50/11 BUOY 41010 NOT AVBL ST AUGUSTINE FL 0500 73 83 230/ 5/ 7 1016.7F $$

USA.gov is the U.S. government's official web portal to all federal, state and local government web resources and services.